• In Portugal
  • List of Countries
  • For 7 days
  • Water Temperature
  • Satellite Maps
  • Weather Map
  • Weather Widgets
  • user-avatar
    Login

    Hourly Weather Kitzbuhel

    Today, 24 October, Wednesday

    Time Temperature Precipitation Wind Pressure Humidity
    00:00 +7°C° 0.5 mm 3 mps 679 mmHg 78%
    01:00 +5°C° 0.5 mm 3 mps 678 mmHg 81%
    02:00 +5°C° 1.1 mm 3 mps 678 mmHg 83%
    03:00 +5°C° 1.1 mm 3 mps 678 mmHg 85%
    04:00 +5°C° 1.1 mm 3 mps 677 mmHg 87%
    05:00 +5°C° 1.4 mm 4 mps 677 mmHg 88%
    06:00 +5°C° 1.4 mm 4 mps 677 mmHg 90%
    07:00 +5°C° 1.4 mm 4 mps 677 mmHg 91%
    08:00 +6°C° 1.7 mm 4 mps 677 mmHg 92%
    09:00 +6°C° 1.7 mm 4 mps 677 mmHg 93%
    10:00 +6°C° 1.7 mm 4 mps 677 mmHg 93%
    11:00 +6°C° 2 mm 4 mps 677 mmHg 94%
    12:00 +6°C° 2 mm 4 mps 677 mmHg 94%
    13:00 +6°C° 2 mm 4 mps 677 mmHg 95%
    14:00 +7°C° 2.2 mm 4 mps 677 mmHg 95%
    15:00 +7°C° 2.2 mm 4 mps 677 mmHg 95%
    16:00 +8°C° 2.2 mm 3 mps 677 mmHg 96%
    17:00 +8°C° 1.6 mm 3 mps 677 mmHg 96%
    18:00 +8°C° 1.6 mm 3 mps 678 mmHg 96%
    19:00 +8°C° 1.6 mm 3 mps 678 mmHg 96%
    20:00 +8°C° 1.3 mm 3 mps 678 mmHg 96%
    21:00 +8°C° 1.3 mm 3 mps 679 mmHg 96%
    22:00 +8°C° 1.3 mm 3 mps 679 mmHg 97%
    23:00 +8°C° 0.8 mm 3 mps 679 mmHg 97%

    Tomorrow, 25 October, Thursday

    Time Temperature Precipitation Wind Pressure Humidity
    00:00 +8°C° 0.8 mm 3 mps 679 mmHg 97%
    01:00 +8°C° 0.8 mm 3 mps 679 mmHg 97%
    02:00 +8°C° 0.4 mm 3 mps 679 mmHg 97%
    03:00 +8°C° 0.4 mm 2 mps 679 mmHg 97%
    04:00 +8°C° 0.4 mm 2 mps 679 mmHg 97%
    05:00 +7°C° 0.1 mm 2 mps 679 mmHg 97%
    06:00 +7°C° 0.1 mm 2 mps 679 mmHg 97%
    07:00 +6°C° 0.1 mm 2 mps 678 mmHg 96%
    08:00 +8°C° 0 mm 2 mps 679 mmHg 92%
    09:00 +9°C° 0 mm 2 mps 679 mmHg 87%
    10:00 +12°C° 0 mm 2 mps 679 mmHg 83%
    11:00 +13°C° 0 mm 2 mps 678 mmHg 78%
    12:00 +14°C° 0 mm 2 mps 678 mmHg 72%
    13:00 +15°C° 0 mm 2 mps 678 mmHg 67%
    14:00 +14°C° 0 mm 2 mps 678 mmHg 71%
    15:00 +13°C° 0 mm 2 mps 677 mmHg 74%
    16:00 +12°C° 0 mm 1 mps 677 mmHg 78%
    17:00 +11°C° 0 mm 1 mps 677 mmHg 82%
    18:00 +10°C° 0 mm 1 mps 677 mmHg 86%
    19:00 +8°C° 0 mm 1 mps 676 mmHg 90%
    20:00 +8°C° 0 mm 1 mps 676 mmHg 90%
    21:00 +8°C° 0 mm 1 mps 676 mmHg 89%
    22:00 +8°C° 0 mm 1 mps 676 mmHg 89%
    23:00 +7°C° 0 mm 1 mps 676 mmHg 88%

    Day after tomorrow, 26 October, Friday

    Time Temperature Precipitation Wind Pressure Humidity
    00:00 +7°C° 0 mm 1 mps 676 mmHg 87%
    01:00 +7°C° 0 mm 1 mps 675 mmHg 86%
    02:00 +6°C° 0 mm 1 mps 675 mmHg 84%
    03:00 +6°C° 0 mm 1 mps 674 mmHg 82%
    04:00 +6°C° 0 mm 1 mps 674 mmHg 80%
    05:00 +6°C° 0 mm 1 mps 674 mmHg 78%
    06:00 +6°C° 0 mm 1 mps 673 mmHg 76%
    07:00 +5°C° 0 mm 1 mps 673 mmHg 73%
    08:00 +8°C° 0 mm 1 mps 673 mmHg 69%
    09:00 +10°C° 0 mm 1 mps 674 mmHg 64%
    10:00 +13°C° 0 mm 1 mps 674 mmHg 60%
    11:00 +14°C° 0 mm 1 mps 674 mmHg 58%
    12:00 +15°C° 0 mm 1 mps 673 mmHg 56%
    13:00 +15°C° 0 mm 2 mps 673 mmHg 54%
    14:00 +15°C° 0 mm 2 mps 672 mmHg 58%
    15:00 +14°C° 0 mm 1 mps 672 mmHg 63%
    16:00 +13°C° 0 mm 1 mps 672 mmHg 67%
    17:00 +11°C° 0 mm 1 mps 671 mmHg 73%
    18:00 +9°C° 0 mm 1 mps 671 mmHg 79%
    19:00 +7°C° 0 mm 1 mps 671 mmHg 84%
    20:00 +7°C° 0 mm 1 mps 671 mmHg 86%
    21:00 +6°C° 0 mm 1 mps 671 mmHg 88%
    22:00 +6°C° 0 mm 1 mps 671 mmHg 90%
    23:00 +6°C° 0 mm 1 mps 671 mmHg 92%

    27 October, Saturday

    Time Temperature Precipitation Wind Pressure Humidity
    00:00 +6°C° 0 mm 1 mps 671 mmHg 93%
    01:00 +6°C° 0 mm 1 mps 671 mmHg 95%
    02:00 +6°C° 0.5 mm 1 mps 671 mmHg 96%
    03:00 +6°C° 0.5 mm 1 mps 671 mmHg 96%
    04:00 +6°C° 0.5 mm 1 mps 671 mmHg 97%
    05:00 +6°C° 1 mm 1 mps 670 mmHg 97%
    06:00 +5°C° 1 mm 1 mps 670 mmHg 97%
    07:00 +5°C° 1 mm 1 mps 670 mmHg 97%
    08:00 +5°C° 1.4 mm 1 mps 670 mmHg 96%
    09:00 +5°C° 1.4 mm 1 mps 670 mmHg 95%
    10:00 +4°C° 1.4 mm 2 mps 670 mmHg 95%
    11:00 +4°C° 1.7 mm 2 mps 670 mmHg 95%
    12:00 +4°C° 1.7 mm 2 mps 669 mmHg 95%
    13:00 +3°C° 1.7 mm 2 mps 669 mmHg 95%
    14:00 +3°C° 1.6 mm 2 mps 669 mmHg 95%
    15:00 +3°C° 1.6 mm 2 mps 669 mmHg 96%
    16:00 +2°C° 1.6 mm 2 mps 669 mmHg 96%
    17:00 +2°C° 1.5 mm 2 mps 669 mmHg 96%
    18:00 +2°C° 1.5 mm 2 mps 669 mmHg 97%
    19:00 +1°C° 1.5 mm 2 mps 669 mmHg 97%
    20:00 +1°C° 0.9 mm 2 mps 669 mmHg 97%
    21:00 +1°C° 0.9 mm 2 mps 669 mmHg 97%
    22:00 +1°C° 0.9 mm 2 mps 669 mmHg 97%
    23:00 +1°C° 0.6 mm 2 mps 668 mmHg 97%

    28 October, Sunday

    Time Temperature Precipitation Wind Pressure Humidity
    00:00 +1°C° 0.6 mm 2 mps 668 mmHg 97%
    01:00 +1°C° 0.6 mm 2 mps 667 mmHg 97%
    02:00 +1°C° 0.8 mm 2 mps 667 mmHg 97%
    03:00 +1°C° 0.8 mm 2 mps 666 mmHg 97%
    04:00 +1°C° 0.8 mm 2 mps 666 mmHg 97%
    05:00 +1°C° 0.9 mm 2 mps 666 mmHg 97%
    06:00 +1°C° 0.9 mm 2 mps 665 mmHg 97%
    07:00 +1°C° 0.9 mm 2 mps 665 mmHg 97%
    08:00 +2°C° 0.9 mm 2 mps 665 mmHg 96%
    09:00 +3°C° 0.9 mm 2 mps 665 mmHg 96%
    10:00 +3°C° 0.9 mm 2 mps 665 mmHg 95%
    11:00 +4°C° 0.3 mm 2 mps 665 mmHg 96%
    12:00 +4°C° 0.3 mm 2 mps 665 mmHg 96%
    13:00 +5°C° 0.3 mm 2 mps 664 mmHg 96%
    14:00 +5°C° 0.4 mm 2 mps 664 mmHg 97%
    15:00 +5°C° 0.4 mm 2 mps 663 mmHg 97%
    16:00 +5°C° 0.4 mm 2 mps 663 mmHg 98%
    17:00 +5°C° 0.5 mm 2 mps 663 mmHg 98%
    18:00 +5°C° 0.5 mm 2 mps 663 mmHg 98%
    19:00 +5°C° 0.5 mm 2 mps 662 mmHg 99%
    20:00 +5°C° 0.6 mm 2 mps 662 mmHg 99%
    21:00 +5°C° 0.6 mm 2 mps 662 mmHg 99%
    22:00 +6°C° 0.6 mm 1 mps 663 mmHg 99%
    23:00 +6°C° 1 mm 1 mps 662 mmHg 99%

    29 October, Monday

    Time Temperature Precipitation Wind Pressure Humidity
    00:00 +6°C° 1 mm 1 mps 662 mmHg 99%
    01:00 +6°C° 1 mm 1 mps 662 mmHg 99%
    02:00 +5°C° 0.5 mm 1 mps 662 mmHg 98%
    03:00 +5°C° 0.5 mm 1 mps 662 mmHg 98%
    04:00 +5°C° 0.5 mm 1 mps 662 mmHg 98%
    05:00 +5°C° 0.2 mm 1 mps 662 mmHg 98%
    06:00 +5°C° 0.2 mm 1 mps 662 mmHg 98%
    07:00 +4°C° 0.2 mm 2 mps 662 mmHg 98%
    08:00 +5°C° 0 mm 2 mps 662 mmHg 98%
    09:00 +5°C° 0 mm 2 mps 662 mmHg 97%
    10:00 +6°C° 0 mm 2 mps 662 mmHg 97%
    11:00 +6°C° 0.1 mm 2 mps 662 mmHg 96%
    12:00 +7°C° 0.1 mm 2 mps 662 mmHg 96%
    13:00 +7°C° 0.1 mm 2 mps 661 mmHg 95%
    14:00 +7°C° 0.2 mm 2 mps 661 mmHg 95%
    15:00 +7°C° 0.2 mm 2 mps 661 mmHg 96%
    16:00 +6°C° 0.2 mm 2 mps 661 mmHg 96%
    17:00 +6°C° 0.1 mm 2 mps 662 mmHg 96%
    18:00 +5°C° 0.1 mm 2 mps 662 mmHg 96%
    19:00 +4°C° 0.1 mm 2 mps 662 mmHg 97%
    20:00 +4°C° 0.2 mm 2 mps 662 mmHg 96%
    21:00 +4°C° 0.2 mm 2 mps 662 mmHg 96%
    22:00 +3°C° 0.2 mm 2 mps 662 mmHg 96%
    23:00 +3°C° 0.3 mm 2 mps 662 mmHg 96%

    30 October, Tuesday

    Time Temperature Precipitation Wind Pressure Humidity
    00:00 +3°C° 0.3 mm 2 mps 663 mmHg 96%
    01:00 +4°C° 0.3 mm 1 mps 663 mmHg 96%
    02:00 +2°C° 0.2 mm 2 mps 663 mmHg 96%
    03:00 +2°C° 0.2 mm 2 mps 663 mmHg 96%
    04:00 +2°C° 0.2 mm 2 mps 663 mmHg 96%
    05:00 +2°C° 0.2 mm 2 mps 663 mmHg 96%
    06:00 +1°C° 0.2 mm 2 mps 664 mmHg 97%
    07:00 +2°C° 0.2 mm 1 mps 664 mmHg 97%
    08:00 +2°C° 0.1 mm 2 mps 664 mmHg 95%
    09:00 +3°C° 0.1 mm 2 mps 665 mmHg 93%
    10:00 +3°C° 0.1 mm 2 mps 666 mmHg 91%
    11:00 +4°C° 0.1 mm 2 mps 666 mmHg 90%
    12:00 +4°C° 0.1 mm 2 mps 666 mmHg 89%
    13:00 +5°C° 0.1 mm 2 mps 666 mmHg 89%
    14:00 +4°C° 0.1 mm 2 mps 666 mmHg 90%
    15:00 +4°C° 0.1 mm 2 mps 666 mmHg 91%
    16:00 +4°C° 0.1 mm 2 mps 667 mmHg 92%
    17:00 +4°C° 0.1 mm 1 mps 667 mmHg 93%
    18:00 +3°C° 0.1 mm 1 mps 667 mmHg 94%
    19:00 +2°C° 0.1 mm 1 mps 668 mmHg 95%
    20:00 +2°C° 0 mm 1 mps 668 mmHg 95%
    21:00 +1°C° 0 mm 1 mps 669 mmHg 94%
    22:00 +1°C° 0 mm 1 mps 669 mmHg 94%
    23:00 +1°C° 0 mm 1 mps 669 mmHg 94%
    Show more